STARLINK-34405, 64704

Orbit data source: Space-Track

STARLINK-34405, 64704 is a payload satellite owned by SpaceX/Seattle (US) in LEO that was launched on Sat, 28 Jun 2025 UTC via an FALCON 9 launch vehicle from the Air Force Western Test Range (AFWTR). Payload-class satellites include a variety of spacecraft equipped with specific instruments for various scientific and technological missions. These include communications satellites like Starlink; space stations such as the ISS; scientific satellites like the Hubble; Earth observation satellites from companies like Planet Labs, Umbra, and HawkEye 360; GPS; miniature CubeSats for education and research; and military/defense satellites.

Loading next visibility...
Identifier
64704, 2025-142J
Orbit
LEO
Country
Flag of USUS
Related business
Manufacturer
SpaceX/Seattle
Mission
Operational Commercial Communications
Bus & Motor
STARLINK V2MO, Unknown motor
Mass
575 kg wet, ~530 kg dry
Launch date (UTC)
2025-06-28 (2 months ago)
Launch vehicle
FALCON 9
Launch site
Air Force Western Test Range (AFWTR)
Object type
Payload
Rocket body
Debris
Shape & HBR
Box + 1 Pan, 14.5 m
Radar Cross Section
41.120 m², Large (>1 m²)

Expand to show TLE details & history
Last TLE update: 1 day ago

TLE from 1 day ago
0 STARLINK-34405
1 64704U 25142J   25241.95949988  .00060138  00000-0  13649-2 0  9993
2 64704  70.0005  80.1888 0003187 270.1214  89.9602 15.42735211 10718
Epoch: 2025-08-29T23:01Z
TLE epoch observation values (Epoch: 2025-08-29T23:01:40.789Z)
Latitude
-0.0001°
Longitude
116.36814°
Altitude
440.512 km
Speed
7.648 km/s
True Right ascension
05h 20m 45s
True Declination
0° 00' 00"
Sunlit
Object was in daylight at epoch
Visualization orbit readout
Latitude
Unknown
Longitude
Unknown
Altitude
Unknown
Speed
Unknown
Apparent Right ascension
Unknown
Apparent Declination
Unknown
Sunlit
N/A
Visualization observer readout
Local Sidereal Time
16:43:32
Azimuth
Unknown
Elevation
Unknown
Doppler factor
Unknown
Orbital elements
Apogee altitude
438.12 km
Perigee altitude
433.777 km
Semi-major axis
6,814.086 km
Eccentricity
0.00032
Inclination
70.0005°
RAAN
80.1888°
Arg. of periapsis
270.1214°
True anomaly
89.99672°
Mean anomaly
89.9602°
Eccentric anomaly
89.97846°
Mean motion
3.85862 °/min
Orbital period
93.3 mins
BSTAR
0.0013649
Loading maneuver chart data...
Computing Atmospheric mass density...
Loading historical data...
Loading historical data...
Loading historical data...
Loading historical data...
Loading historical data...
Loading historical data...
Loading historical data...

Documentation

Showing up to 5 results
|